Regional Weather Roundup
Issued by NWS

Home | Current Version | Previous Version | Text Only | Print | Product List | Glossary Off
Versions: 1 2 3 4 5 6 7 8 9 10 11 12 13 14 15 16 17 18 19 20 21 22 23 24 25 26 27 28 29 30 31 32 33 34 35 36 37 38 39 40 41 42 43 44 45 46 47 48 49 50

000
ASUS43 KBIS 201659
RWRND

NORTH DAKOTA REGIONAL WEATHER ROUNDUP
NATIONAL WEATHER SERVICE BISMARCK ND
1200 PM CDT MON OCT 20 2014

NOTE: "FAIR" INDICATES FEW OR NO CLOUDS BELOW 12,000 FEET WITH NO
SIGNIFICANT WEATHER AND/OR OBSTRUCTIONS TO VISIBILITY.


NDZ001>003-009>011-017-201800-
NORTHWEST NORTH DAKOTA

CITY           SKY/WX    TMP DP  RH WIND       PRES   REMARKS
WILLISTON      SUNNY     63  40  42 SE12      29.93F
MINOT          SUNNY     66  38  35 S15       29.99F
$$

NDZ018>021-031>035-040>046-201800-
SOUTHWEST NORTH DAKOTA

CITY           SKY/WX    TMP DP  RH WIND       PRES   REMARKS
BISMARCK       SUNNY     60  43  53 S5        30.06F
GARRISON         N/A     60  42  51 S9        30.01F
HETTINGER ARPT SUNNY     64  39  39 S17G26    30.02F
$$

NDZ004>008-012>016-024-026-027-054-201800-
NORTHEAST NORTH DAKOTA

CITY           SKY/WX    TMP DP  RH WIND       PRES   REMARKS
GRAND FORKS    MOSUNNY   51  41  68 VRB3      30.08F
DEVILS LAKE    SUNNY     54  39  58 SE8       30.04F
$$

NDZ022-023-025-028>030-036>039-047>053-201800-
SOUTHEAST NORTH DAKOTA

CITY           SKY/WX    TMP DP  RH WIND       PRES   REMARKS
FARGO          SUNNY     55  43  63 N3        30.07S
$$



USA.gov is the U.S. government's official web portal to all federal, state and local government web resources and services.